This demonstration page uses our WeatherBlox Daily Observations layout. Learn more.

Hourly Observations for March 18, 2017

Temp ( °F °C ) Dew Point ( °F °C ) Humidity (%) Winds ( mph kmh ) Pressure ( in mb ) Visibility ( mi km ) Precip ( " mm )
12:15 am 00:15 Clear 40 4.4 20 -6.4 46 46 ENE 10 17 30.36 1028 10 16.0934 0 0
12:35 am 00:35 Clear 39 4.1 20 -6.6 46 46 NE 8 13 30.39 1029 10 16.0934 0 0
12:55 am 00:55 Clear 36 2.2 20 -6.7 52 52 NE 8 13 30.42 1030 10 16.0934 0 0
1:15 am 01:15 Clear 36 2.1 20 -6.6 53 53 NE 9 15 30.42 1030 10 16.0934 0 0
1:35 am 01:35 Clear 36 2.3 20 -6.5 53 53 NE 8 13 30.42 1030 10 16.0934 0 0
1:55 am 01:55 Clear 36 2.2 20 -6.8 52 52 NE 5 7 30.42 1030 10 16.0934 0 0
2:15 am 02:15 Clear 35 1.6 20 -6.9 54 54 NNE 3 6 30.42 1030 10 16.0934 0 0
2:35 am 02:35 Clear 34 1.1 20 -6.7 56 56 NE 5 7 30.42 1030 10 16.0934 0 0
2:55 am 02:55 Clear 32 0.1 19 -7 59 59 NE 6 9 30.42 1030 10 16.0934 0 0
3:15 am 03:15 Clear 33 0.5 19 -7.2 57 57 NE 5 7 30.42 1030 10 16.0934 0 0
3:35 am 03:35 Clear 33 0.3 19 -7 58 58 ENE 5 7 30.42 1030 10 16.0934 0 0
3:55 am 03:55 Clear 33 0.3 20 -6.7 60 60 ENE 5 7 30.42 1030 10 16.0934 0 0
4:15 am 04:15 Clear 34 1.1 21 -6.3 58 58 NE 3 6 30.42 1030 10 16.0934 0 0
4:35 am 04:35 Clear 32 0.2 20 -6.7 60 60 Calm 30.42 1030 10 16.0934 0 0
4:55 am 04:55 Clear 33 0.3 20 -6.5 61 61 ENE 3 6 30.42 1030 10 16.0934 0 0
5:15 am 05:15 Clear 33 0.8 21 -6.1 60 60 E 3 6 30.42 1030 10 16.0934 0 0
5:35 am 05:35 Clear 31 -0.7 20 -6.7 64 64 Calm 30.45 1031 10 16.0934 0 0
5:55 am 05:55 Clear 33 0.4 21 -6 63 63 E 3 6 30.42 1030 10 16.0934 0 0
6:15 am 06:15 Clear 31 -0.7 20 -6.5 65 65 Calm 30.45 1031 10 16.0934 0 0
6:35 am 06:35 Clear 30 -1 20 -6.8 65 65 Calm 30.45 1031 10 16.0934 0 0
6:55 am 06:55 Clear 29 -1.5 19 -7 67 67 E 5 7 30.45 1031 10 16.0934 0 0
7:15 am 07:15 Clear 31 -0.6 21 -5.9 68 68 E 3 6 30.42 1030 10 16.0934 0 0
7:35 am 07:35 Clear 30 -1.3 21 -6.1 70 70 Calm 30.48 1032 10 16.0934 0 0
7:55 am 07:55 Sunny 32 -0.1 23 -5.1 69 69 Calm 30.45 1031 10 16.0934 0 0
8:15 am 08:15 Sunny 32 0 23 -5 69 69 Calm 30.45 1031 10 16.0934 0 0
8:35 am 08:35 Sunny 33 0.8 24 -4.5 68 68 Calm 30.45 1031 10 16.0934 0 0
8:55 am 08:55 Sunny 36 2 26 -3.6 67 67 SE 6 9 30.45 1031 10 16.0934 0 0
9:15 am 09:15 Sunny 38 3.6 25 -3.9 58 58 SE 8 13 30.42 1030 10 16.0934 0 0
9:35 am 09:35 Sunny 40 4.7 24 -4.2 53 53 SE 9 15 30.42 1030 10 16.0934 0 0
9:55 am 09:55 Sunny 43 5.9 20 -6.7 40 40 SE 12 19 30.39 1029 10 16.0934 0 0
10:15 am 10:15 Sunny 44 6.8 20 -6.7 38 38 SE 10 17 30.39 1029 10 16.0934 0 0
10:35 am 10:35 Sunny 46 7.5 20 -6.8 36 36 SE 10 17 30.39 1029 10 16.0934 0 0
10:55 am 10:55 Sunny 47 8.2 20 -6.6 35 35 SE 10 17 30.39 1029 10 16.0934 0 0
11:15 am 11:15 Sunny 48 8.7 21 -5.9 35 35 SE 9 15 30.39 1029 10 16.0934 0 0
11:35 am 11:35 Sunny 49 9.3 22 -5.6 35 35 SSE 12 19 30.36 1028 10 16.0934 0 0
11:55 am 11:55 Sunny 49 9.7 22 -5.7 34 34 SE 10 17 30.33 1027 10 16.0934 0 0
12:15 pm 12:15 Sunny 51 10.6 22 -5.8 31 31 SSE 10 17 30.33 1027 10 16.0934 0 0
12:35 pm 12:35 Sunny 53 11.6 20 -6.5 28 28 SSE 13 20 30.33 1027 10 16.0934 0 0
12:55 pm 12:55 Sunny 54 12 20 -6.4 27 27 S 14 22 30.27 1025 10 16.0934 0 0
1:15 pm 13:15 Sunny 54 12.4 20 -6.6 26 26 SSE 15 24 30.27 1025 10 16.0934 0 0
1:35 pm 13:35 Sunny 56 13.4 20 -6.5 25 25 S 16 26 30.27 1025 10 16.0934 0 0
1:55 pm 13:55 Sunny 58 14.5 21 -6 24 24 S 13 20 30.24 1024 10 16.0934 0 0
2:15 pm 14:15 Sunny 58 14.7 22 -5.5 24 24 S 14 22 30.24 1024 10 16.0934 0 0
2:35 pm 14:35 Sunny 59 15.1 22 -5.4 24 24 S 15 24 30.18 1022 10 16.0934 0 0
2:55 pm 14:55 Sunny 60 15.4 23 -5.1 24 24 S 18 30 30.18 1022 10 16.0934 0 0
3:15 pm 15:15 Sunny 60 15.6 23 -4.9 24 24 S 14 22 30.15 1021 10 16.0934 0 0
3:35 pm 15:35 Sunny 61 16.1 24 -4.6 24 24 S 18 30 30.15 1021 10 16.0934 0 0
3:55 pm 15:55 Sunny 61 16.2 24 -4.7 24 24 S 15 24 30.15 1021 10 16.0934 0 0
4:15 pm 16:15 Sunny 62 16.6 24 -4.5 23 23 S 14 22 30.12 1020 10 16.0934 0 0
4:35 pm 16:35 Sunny 64 17.6 25 -4 23 23 S 13 20 30.09 1019 10 16.0934 0 0
4:55 pm 16:55 Sunny 65 18.3 26 -3.1 23 23 S 14 22 30.09 1019 10 16.0934 0 0
5:15 pm 17:15 Sunny 65 18.5 28 -2.4 24 24 S 12 19 30.06 1018 10 16.0934 0 0
5:35 pm 17:35 Sunny 65 18.6 27 -2.6 24 24 S 15 24 30.06 1018 10 16.0934 0 0
5:55 pm 17:55 Sunny 65 18.6 28 -2.1 25 25 S 18 30 30.06 1018 10 16.0934 0 0
6:15 pm 18:15 Sunny 65 18.4 29 -1.6 26 26 S 15 24 30.06 1018 10 16.0934 0 0
6:35 pm 18:35 Sunny 65 18.1 29 -1.7 26 26 SSE 15 24 30.06 1018 10 16.0934 0 0
6:55 pm 18:55 Sunny 65 18.1 31 -0.6 28 28 S 14 22 30.06 1018 10 16.0934 0 0
7:15 pm 19:15 Sunny 64 17.6 31 -0.5 29 29 SSE 13 20 30.06 1018 10 16.0934 0 0
7:35 pm 19:35 Sunny 62 16.4 30 -0.9 31 31 SE 9 15 30.09 1019 10 16.0934 0 0
7:55 pm 19:55 Clear 57 14 28 -2 33 33 SE 12 19 30.09 1019 10 16.0934 0 0
8:15 pm 20:15 Clear 55 12.8 27 -2.6 34 34 SE 12 19 30.12 1020 10 16.0934 0 0
8:35 pm 20:35 Clear 54 12.1 27 -2.8 36 36 SE 10 17 30.12 1020 10 16.0934 0 0
8:55 pm 20:55 Clear 53 11.9 27 -3 36 36 SE 14 22 30.12 1020 10 16.0934 0 0
9:15 pm 21:15 Clear 53 11.5 26 -3.3 36 36 SE 14 22 30.12 1020 10 16.0934 0 0
9:35 pm 21:35 Clear 52 11 26 -3.5 36 36 SE 13 20 30.12 1020 10 16.0934 0 0
9:55 pm 21:55 Clear 51 10.8 26 -3.5 37 37 SSE 15 24 30.12 1020 10 16.0934 0 0
10:15 pm 22:15 Clear 51 10.6 27 -2.9 39 39 SSE 13 20 30.12 1020 10 16.0934 0 0
10:35 pm 22:35 Clear 50 10.1 27 -2.6 41 41 SE 10 17 30.15 1021 10 16.0934 0 0
10:55 pm 22:55 Clear 49 9.4 29 -1.8 46 46 SE 10 17 30.15 1021 10 16.0934 0 0
11:15 pm 23:15 Clear 49 9.5 30 -1 48 48 SSE 10 17 30.12 1020 10 16.0934 0 0
11:35 pm 23:35 Clear 49 9.7 31 -0.5 49 49 SSE 10 17 30.12 1020 10 16.0934 0 0
11:55 pm 23:55 Clear 50 9.8 32 -0.1 50 50 SSE 12 19 30.12 1020 10 16.0934 0 0

Powered by AerisWeather